| time (UTC) | temp C | wind direction | speed KPH | gust KPH | rain 1hr cm | rain 24hr cm | rain mn cm | humidity % | barometer mb |
| 20260901010039 | 27 | 58 | 0.0 | 0.0 | 0.00 | 0.00 | 0.00 | 73 | 1016.1 |
| 20260901005534 | 28 | 58 | 0.0 | 0.0 | 0.00 | 0.00 | 0.00 | 71 | 1015.8 |
| 20260901005030 | 28 | 58 | 0.0 | 0.0 | 0.00 | 0.00 | 0.00 | 70 | 1016.1 |
| 20260901004529 | 28 | 58 | 0.0 | 0.0 | 0.00 | 0.00 | 0.00 | 69 | 1016.0 |
| 20260901004024 | 28 | 58 | 0.0 | 0.0 | 0.00 | 0.00 | 0.00 | 69 | 1016.1 |
| 20260901003519 | 28 | 58 | 0.0 | 0.0 | 0.00 | 0.00 | 0.00 | 67 | 1016.0 |
| 20260901003017 | 29 | 58 | 0.0 | 0.0 | 0.00 | 0.00 | 0.00 | 67 | 1015.9 |
| 20260901002512 | 29 | 58 | 0.0 | 0.0 | 0.00 | 0.00 | 0.00 | 66 | 1015.9 |
| 20260901002007 | 30 | 58 | 0.0 | 0.0 | 0.00 | 0.00 | 0.00 | 65 | 1016.1 |
| 20260901001502 | 30 | 58 | 0.0 | 0.0 | 0.00 | 0.00 | 0.00 | 64 | 1016.3 |
| 20260901000957 | 30 | 57 | 0.0 | 0.0 | 0.00 | 0.00 | 0.00 | 64 | 1016.1 |
| 20260901000458 | 30 | 57 | 0.0 | 0.0 | 0.00 | 0.00 | 0.00 | 62 | 1016.0 |
| 20260831235955 | 31 | 59 | 0.0 | 0.0 | 0.00 | 0.00 | 0.00 | 63 | 1016.0 |
| 20260831235451 | 31 | 58 | 0.0 | 0.0 | 0.00 | 0.00 | 0.00 | 62 | 1016.0 |
| 20260831234946 | 31 | 58 | 0.0 | 0.0 | 0.00 | 0.00 | 0.00 | 60 | 1016.1 |
| 20260831234441 | 31 | 69 | 1.6 | 1.6 | 0.00 | 0.00 | 0.00 | 60 | 1015.8 |
| 20260831233936 | 32 | 69 | 0.0 | 1.6 | 0.00 | 0.00 | 0.00 | 59 | 1015.9 |
| 20260831233431 | 32 | 61 | 0.0 | 0.0 | 0.00 | 0.00 | 0.00 | 56 | 1016.3 |
| 20260831232927 | 32 | 63 | 0.0 | 0.0 | 0.00 | 0.00 | 0.00 | 55 | 1016.1 |
| 20260831232423 | 33 | 70 | 0.0 | 1.6 | 0.00 | 0.00 | 0.00 | 53 | 1016.3 |
| 20260831231918 | 33 | 55 | 0.0 | 1.6 | 0.00 | 0.00 | 0.00 | 53 | 1016.3 |
| 20260831231415 | 33 | 58 | 0.0 | 1.6 | 0.00 | 0.00 | 0.00 | 52 | 1016.3 |
| 20260831230910 | 33 | 100 | 3.2 | 3.2 | 0.00 | 0.00 | 0.00 | 51 | 1016.5 |
| 20260831230405 | 34 | 72 | 0.0 | 1.6 | 0.00 | 0.00 | 0.00 | 52 | 1016.5 |
| 20260831225905 | 35 | 30 | 1.6 | 1.6 | 0.00 | 0.00 | 0.00 | 49 | 1016.4 |
| 20260831225401 | 34 | 55 | 0.0 | 0.0 | 0.00 | 0.00 | 0.00 | 50 | 1016.6 |
| 20260831224855 | 34 | 59 | 0.0 | 0.0 | 0.00 | 0.00 | 0.00 | 50 | 1016.6 |
| 20260831224350 | 35 | 56 | 0.0 | 0.0 | 0.00 | 0.00 | 0.00 | 49 | 1016.5 |
| 20260831223850 | 35 | 66 | 0.0 | 1.6 | 0.00 | 0.00 | 0.00 | 49 | 1016.5 |
| 20260831223346 | 35 | 341 | 3.2 | 3.2 | 0.00 | 0.00 | 0.00 | 46 | 1016.7 |
| 20260831222843 | 35 | 83 | 1.6 | 3.2 | 0.00 | 0.00 | 0.00 | 44 | 1016.8 |
| 20260831222338 | 36 | 294 | 3.2 | 4.8 | 0.00 | 0.00 | 0.00 | 44 | 1016.7 |
| 20260831221833 | 36 | 54 | 0.0 | 0.0 | 0.00 | 0.00 | 0.00 | 45 | 1016.7 |
| 20260831221329 | 36 | 62 | 0.0 | 0.0 | 0.00 | 0.00 | 0.00 | 46 | 1016.9 |
| 20260831220823 | 36 | 331 | 1.6 | 3.2 | 0.00 | 0.00 | 0.00 | 43 | 1016.7 |
| 20260831220318 | 36 | 47 | 1.6 | 1.6 | 0.00 | 0.00 | 0.00 | 42 | 1016.7 |
| 20260831215814 | 37 | 22 | 1.6 | 1.6 | 0.00 | 0.00 | 0.00 | 42 | 1016.7 |
| 20260831215310 | 36 | 227 | 0.0 | 1.6 | 0.00 | 0.00 | 0.00 | 44 | 1016.7 |
| 20260831214806 | 36 | 39 | 1.6 | 1.6 | 0.00 | 0.00 | 0.00 | 41 | 1016.8 |
| 20260831214303 | 36 | 37 | 0.0 | 1.6 | 0.00 | 0.00 | 0.00 | 42 | 1016.8 |
| 20260831213758 | 36 | 62 | 0.0 | 0.0 | 0.00 | 0.00 | 0.00 | 41 | 1017.0 |
| 20260831213255 | 36 | 337 | 0.0 | 1.6 | 0.00 | 0.00 | 0.00 | 42 | 1017.0 |
| 20260831212749 | 36 | 65 | 0.0 | 0.0 | 0.00 | 0.00 | 0.00 | 45 | 1016.8 |
| 20260831212247 | 36 | 69 | 0.0 | 1.6 | 0.00 | 0.00 | 0.00 | 43 | 1017.0 |
| 20260831211744 | 36 | 231 | 1.6 | 3.2 | 0.00 | 0.00 | 0.00 | 42 | 1016.9 |
| 20260831211241 | 36 | 30 | 1.6 | 3.2 | 0.00 | 0.00 | 0.00 | 43 | 1017.0 |
| 20260831210741 | 36 | 62 | 1.6 | 3.2 | 0.00 | 0.00 | 0.00 | 42 | 1017.2 |
| 20260831210237 | 36 | 60 | 0.0 | 0.0 | 0.00 | 0.00 | 0.00 | 45 | 1017.1 |
| 20260831205736 | 36 | 41 | 0.0 | 0.0 | 0.00 | 0.00 | 0.00 | 41 | 1017.1 |
| 20260831205232 | 36 | 50 | 0.0 | 0.0 | 0.00 | 0.00 | 0.00 | 42 | 1017.0 |
| 20260831204726 | 36 | 68 | 0.0 | 1.6 | 0.00 | 0.00 | 0.00 | 43 | 1017.1 |
| 20260831204226 | 36 | 54 | 0.0 | 1.6 | 0.00 | 0.00 | 0.00 | 45 | 1017.0 |
| 20260831203720 | 37 | 46 | 1.6 | 3.2 | 0.00 | 0.00 | 0.00 | 44 | 1016.9 |
| 20260831203220 | 37 | 64 | 1.6 | 1.6 | 0.00 | 0.00 | 0.00 | 49 | 1017.2 |
| 20260831202718 | 36 | 70 | 1.6 | 1.6 | 0.00 | 0.00 | 0.00 | 46 | 1017.3 |
| 20260831202213 | 35 | 25 | 1.6 | 1.6 | 0.00 | 0.00 | 0.00 | 46 | 1017.4 |
| 20260831201713 | 35 | 66 | 1.6 | 1.6 | 0.00 | 0.00 | 0.00 | 47 | 1017.5 |
| 20260831201207 | 34 | 93 | 1.6 | 1.6 | 0.00 | 0.00 | 0.00 | 50 | 1017.5 |
| 20260831200702 | 33 | 356 | 3.2 | 4.8 | 0.00 | 0.00 | 0.00 | 48 | 1017.5 |
| 20260831200156 | 34 | 47 | 1.6 | 1.6 | 0.00 | 0.00 | 0.00 | 47 | 1017.6 |
| 20260831195652 | 35 | 68 | 1.6 | 1.6 | 0.00 | 0.00 | 0.00 | 47 | 1017.6 |
| 20260831195147 | 35 | 355 | 3.2 | 3.2 | 0.00 | 0.00 | 0.00 | 48 | 1017.7 |
| 20260831194642 | 35 | 64 | 0.0 | 1.6 | 0.00 | 0.00 | 0.00 | 47 | 1017.7 |
| 20260831194137 | 36 | 65 | 0.0 | 0.0 | 0.00 | 0.00 | 0.00 | 46 | 1017.7 |
| 20260831193631 | 36 | 54 | 0.0 | 0.0 | 0.00 | 0.00 | 0.00 | 46 | 1017.8 |
| 20260831193127 | 35 | 103 | 1.6 | 3.2 | 0.00 | 0.00 | 0.00 | 51 | 1017.7 |
| 20260831192622 | 35 | 43 | 1.6 | 3.2 | 0.00 | 0.00 | 0.00 | 53 | 1018.0 |
| 20260831192117 | 35 | 354 | 6.4 | 9.7 | 0.00 | 0.00 | 0.00 | 47 | 1018.0 |
| 20260831191608 | 35 | 111 | 1.6 | 1.6 | 0.00 | 0.00 | 0.00 | 46 | 1018.0 |
| 20260831191104 | 35 | 21 | 4.8 | 6.4 | 0.00 | 0.00 | 0.00 | 46 | 1017.9 |
| 20260831190559 | 35 | 62 | 1.6 | 1.6 | 0.00 | 0.00 | 0.00 | 50 | 1018.2 |
| 20260831190057 | 35 | 63 | 3.2 | 4.8 | 0.00 | 0.00 | 0.00 | 48 | 1018.1 |
| 20260831185553 | 35 | 10 | 1.6 | 3.2 | 0.00 | 0.00 | 0.00 | 47 | 1018.3 |
| 20260831185049 | 35 | 21 | 1.6 | 1.6 | 0.00 | 0.00 | 0.00 | 46 | 1018.3 |
| 20260831184548 | 35 | 78 | 1.6 | 1.6 | 0.00 | 0.00 | 0.00 | 47 | 1018.4 |
| 20260831184044 | 35 | 74 | 3.2 | 3.2 | 0.00 | 0.00 | 0.00 | 48 | 1018.4 |
| 20260831183543 | 35 | 223 | 4.8 | 4.8 | 0.00 | 0.00 | 0.00 | 52 | 1018.7 |
| 20260831183042 | 34 | 56 | 0.0 | 0.0 | 0.00 | 0.00 | 0.00 | 49 | 1018.5 |
| 20260831182536 | 34 | 69 | 1.6 | 1.6 | 0.00 | 0.00 | 0.00 | 50 | 1018.7 |
| 20260831182032 | 35 | 226 | 8.0 | 9.7 | 0.00 | 0.00 | 0.00 | 49 | 1018.7 |
| 20260831181532 | 35 | 185 | 4.8 | 4.8 | 0.00 | 0.00 | 0.00 | 49 | 1018.7 |
| 20260831181032 | 34 | 89 | 1.6 | 1.6 | 0.00 | 0.00 | 0.00 | 49 | 1018.7 |
| 20260831180527 | 34 | 290 | 3.2 | 4.8 | 0.00 | 0.00 | 0.00 | 47 | 1018.8 |
| 20260831180022 | 34 | 68 | 1.6 | 1.6 | 0.00 | 0.00 | 0.00 | 50 | 1018.8 |
| 20260831175517 | 34 | 259 | 3.2 | 3.2 | 0.00 | 0.00 | 0.00 | 50 | 1018.9 |
| 20260831175014 | 34 | 45 | 0.0 | 0.0 | 0.00 | 0.00 | 0.00 | 49 | 1019.1 |
| 20260831174509 | 34 | 43 | 3.2 | 6.4 | 0.00 | 0.00 | 0.00 | 48 | 1019.2 |
| 20260831174008 | 34 | 240 | 4.8 | 4.8 | 0.00 | 0.00 | 0.00 | 49 | 1019.2 |
| 20260831173506 | 34 | 102 | 0.0 | 1.6 | 0.00 | 0.00 | 0.00 | 51 | 1019.2 |
| 20260831173003 | 33 | 64 | 0.0 | 0.0 | 0.00 | 0.00 | 0.00 | 55 | 1019.1 |
| 20260831172458 | 33 | 261 | 3.2 | 4.8 | 0.00 | 0.00 | 0.00 | 53 | 1019.0 |
| 20260831171953 | 33 | 345 | 1.6 | 3.2 | 0.00 | 0.00 | 0.00 | 53 | 1019.3 |
| 20260831171448 | 33 | 99 | 1.6 | 1.6 | 0.00 | 0.00 | 0.00 | 52 | 1019.1 |
| 20260831170946 | 33 | 289 | 4.8 | 4.8 | 0.00 | 0.00 | 0.00 | 51 | 1019.3 |
| 20260831170442 | 33 | 299 | 6.4 | 6.4 | 0.00 | 0.00 | 0.00 | 50 | 1019.4 |
| 20260831165938 | 33 | 26 | 3.2 | 4.8 | 0.00 | 0.00 | 0.00 | 52 | 1019.3 |
| 20260831165434 | 33 | 59 | 0.0 | 0.0 | 0.00 | 0.00 | 0.00 | 56 | 1019.5 |
| 20260831164931 | 33 | 265 | 4.8 | 4.8 | 0.00 | 0.00 | 0.00 | 56 | 1019.4 |
| 20260831164427 | 33 | 83 | 1.6 | 3.2 | 0.00 | 0.00 | 0.00 | 54 | 1019.7 |
| 20260831163927 | 33 | 0 | 1.6 | 1.6 | 0.00 | 0.00 | 0.00 | 54 | 1019.8 |
| 20260831163422 | 33 | 82 | 1.6 | 3.2 | 0.00 | 0.00 | 0.00 | 55 | 1019.8 |
| 20260831162921 | 32 | 282 | 6.4 | 9.7 | 0.00 | 0.00 | 0.00 | 56 | 1019.9 |
| 20260831162416 | 32 | 172 | 6.4 | 11.3 | 0.00 | 0.00 | 0.00 | 56 | 1019.6 |
| 20260831161915 | 32 | 197 | 6.4 | 6.4 | 0.00 | 0.00 | 0.00 | 55 | 1019.8 |
| 20260831161412 | 32 | 350 | 8.0 | 11.3 | 0.00 | 0.00 | 0.00 | 58 | 1019.8 |
| 20260831160907 | 32 | 14 | 4.8 | 4.8 | 0.00 | 0.00 | 0.00 | 57 | 1019.8 |
| 20260831160401 | 32 | 195 | 3.2 | 4.8 | 0.00 | 0.00 | 0.00 | 58 | 1019.9 |
| 20260831155857 | 32 | 203 | 4.8 | 4.8 | 0.00 | 0.00 | 0.00 | 58 | 1019.8 |
| 20260831155356 | 32 | 239 | 3.2 | 6.4 | 0.00 | 0.00 | 0.00 | 61 | 1019.8 |
| 20260831154852 | 31 | 319 | 4.8 | 6.4 | 0.00 | 0.00 | 0.00 | 60 | 1019.7 |
| 20260831154348 | 32 | 262 | 6.4 | 6.4 | 0.00 | 0.00 | 0.00 | 58 | 1019.8 |
| 20260831153846 | 32 | 30 | 4.8 | 9.7 | 0.00 | 0.00 | 0.00 | 59 | 1019.8 |
| 20260831153343 | 31 | 288 | 3.2 | 4.8 | 0.00 | 0.00 | 0.00 | 61 | 1019.8 |
| 20260831152838 | 32 | 231 | 4.8 | 4.8 | 0.00 | 0.00 | 0.00 | 61 | 1019.6 |
| 20260831152334 | 31 | 106 | 3.2 | 4.8 | 0.00 | 0.00 | 0.00 | 62 | 1019.9 |
| 20260831151829 | 31 | 101 | 1.6 | 3.2 | 0.00 | 0.00 | 0.00 | 62 | 1019.8 |
| 20260831151328 | 31 | 244 | 4.8 | 4.8 | 0.00 | 0.00 | 0.00 | 62 | 1019.8 |
| 20260831150823 | 31 | 357 | 1.6 | 3.2 | 0.00 | 0.00 | 0.00 | 63 | 1019.8 |
| 20260831150319 | 31 | 334 | 4.8 | 4.8 | 0.00 | 0.00 | 0.00 | 63 | 1019.7 |
| 20260831145818 | 31 | 71 | 1.6 | 3.2 | 0.00 | 0.00 | 0.00 | 64 | 1019.7 |
| 20260831145315 | 31 | 122 | 4.8 | 4.8 | 0.00 | 0.00 | 0.00 | 63 | 1019.6 |
| 20260831144810 | 31 | 270 | 1.6 | 3.2 | 0.00 | 0.00 | 0.00 | 64 | 1019.9 |
| 20260831144306 | 30 | 302 | 3.2 | 4.8 | 0.00 | 0.00 | 0.00 | 65 | 1019.7 |
| 20260831143805 | 30 | 126 | 3.2 | 4.8 | 0.00 | 0.00 | 0.00 | 66 | 1019.7 |
| 20260831143301 | 30 | 66 | 0.0 | 1.6 | 0.00 | 0.00 | 0.00 | 67 | 1019.7 |
| 20260831142756 | 30 | 28 | 0.0 | 1.6 | 0.00 | 0.00 | 0.00 | 67 | 1019.6 |
| 20260831142251 | 30 | 256 | 4.8 | 4.8 | 0.00 | 0.00 | 0.00 | 68 | 1019.8 |
| 20260831141751 | 29 | 37 | 3.2 | 3.2 | 0.00 | 0.00 | 0.00 | 69 | 1019.5 |
| 20260831141251 | 29 | 144 | 4.8 | 4.8 | 0.00 | 0.00 | 0.00 | 69 | 1019.6 |
| 20260831140747 | 29 | 289 | 1.6 | 4.8 | 0.00 | 0.00 | 0.00 | 69 | 1019.4 |
| 20260831140246 | 28 | 138 | 3.2 | 3.2 | 0.00 | 0.00 | 0.00 | 70 | 1019.4 |
| 20260831135743 | 28 | 54 | 0.0 | 0.0 | 0.00 | 0.00 | 0.00 | 72 | 1019.4 |
| 20260831135240 | 28 | 60 | 0.0 | 0.0 | 0.00 | 0.00 | 0.00 | 73 | 1019.5 |
| 20260831134735 | 28 | 14 | 6.4 | 6.4 | 0.00 | 0.00 | 0.00 | 72 | 1019.3 |
| 20260831134232 | 28 | 314 | 3.2 | 3.2 | 0.00 | 0.00 | 0.00 | 72 | 1019.3 |
| 20260831133730 | 28 | 60 | 0.0 | 0.0 | 0.00 | 0.00 | 0.00 | 74 | 1019.2 |
| 20260831133225 | 27 | 45 | 0.0 | 0.0 | 0.00 | 0.00 | 0.00 | 75 | 1019.1 |
| 20260831132720 | 27 | 263 | 4.8 | 4.8 | 0.00 | 0.00 | 0.00 | 77 | 1019.2 |
| 20260831132215 | 26 | 62 | 1.6 | 1.6 | 0.00 | 0.00 | 0.00 | 78 | 1019.3 |
| 20260831131715 | 27 | 240 | 3.2 | 3.2 | 0.00 | 0.00 | 0.00 | 77 | 1019.4 |
| 20260831131212 | 27 | 185 | 1.6 | 3.2 | 0.00 | 0.00 | 0.00 | 78 | 1019.3 |
| 20260831130712 | 26 | 179 | 1.6 | 3.2 | 0.00 | 0.00 | 0.00 | 79 | 1019.1 |
| 20260831130208 | 26 | 61 | 3.2 | 4.8 | 0.00 | 0.00 | 0.00 | 81 | 1019.1 |
| 20260831125706 | 26 | 54 | 0.0 | 1.6 | 0.00 | 0.00 | 0.00 | 82 | 1019.1 |
| 20260831125202 | 26 | 50 | 0.0 | 1.6 | 0.00 | 0.00 | 0.00 | 83 | 1018.8 |
| 20260831124657 | 25 | 199 | 1.6 | 3.2 | 0.00 | 0.00 | 0.00 | 84 | 1018.8 |
| 20260831124153 | 25 | 73 | 0.0 | 0.0 | 0.00 | 0.00 | 0.00 | 85 | 1018.9 |
| 20260831123653 | 25 | 62 | 0.0 | 0.0 | 0.00 | 0.00 | 0.00 | 88 | 1018.8 |
| 20260831123152 | 23 | 62 | 0.0 | 0.0 | 0.00 | 0.00 | 0.00 | 90 | 1018.8 |
| 20260831122651 | 23 | 62 | 0.0 | 0.0 | 0.00 | 0.00 | 0.00 | 95 | 1018.7 |
| 20260831122148 | 22 | 62 | 0.0 | 0.0 | 0.00 | 0.00 | 0.00 | 95 | 1018.4 |
| 20260831121647 | 22 | 63 | 0.0 | 0.0 | 0.00 | 0.00 | 0.00 | 95 | 1018.7 |
| 20260831121143 | 22 | 63 | 0.0 | 0.0 | 0.00 | 0.00 | 0.00 | 95 | 1018.5 |
| 20260831120639 | 22 | 63 | 0.0 | 0.0 | 0.00 | 0.00 | 0.00 | 95 | 1018.5 |
| 20260831120133 | 22 | 63 | 0.0 | 0.0 | 0.00 | 0.00 | 0.00 | 95 | 1018.4 |
| 20260831115629 | 22 | 63 | 0.0 | 0.0 | 0.00 | 0.00 | 0.00 | 95 | 1018.5 |
| 20260831115124 | 22 | 63 | 0.0 | 0.0 | 0.00 | 0.00 | 0.00 | 95 | 1018.4 |
| 20260831114624 | 22 | 63 | 0.0 | 0.0 | 0.00 | 0.00 | 0.00 | 95 | 1018.3 |
| 20260831114119 | 22 | 63 | 0.0 | 0.0 | 0.00 | 0.00 | 0.00 | 95 | 1018.2 |
| 20260831113618 | 22 | 63 | 0.0 | 0.0 | 0.00 | 0.00 | 0.00 | 95 | 1018.2 |
| 20260831113113 | 22 | 63 | 0.0 | 0.0 | 0.00 | 0.00 | 0.00 | 95 | 1018.2 |
| 20260831112612 | 22 | 63 | 0.0 | 0.0 | 0.00 | 0.00 | 0.00 | 95 | 1018.2 |
| 20260831112108 | 22 | 63 | 0.0 | 0.0 | 0.00 | 0.00 | 0.00 | 95 | 1018.4 |
| 20260831111604 | 22 | 63 | 0.0 | 0.0 | 0.00 | 0.00 | 0.00 | 94 | 1018.2 |
| 20260831111059 | 22 | 63 | 0.0 | 0.0 | 0.00 | 0.00 | 0.00 | 94 | 1018.2 |
| 20260831110554 | 22 | 63 | 0.0 | 0.0 | 0.00 | 0.00 | 0.00 | 94 | 1018.1 |
| 20260831110049 | 22 | 63 | 0.0 | 0.0 | 0.00 | 0.00 | 0.00 | 93 | 1018.2 |
| 20260831105549 | 22 | 63 | 0.0 | 0.0 | 0.00 | 0.00 | 0.00 | 93 | 1018.0 |
| 20260831105043 | 22 | 63 | 0.0 | 0.0 | 0.00 | 0.00 | 0.00 | 93 | 1018.3 |
| 20260831104540 | 22 | 63 | 0.0 | 0.0 | 0.00 | 0.00 | 0.00 | 93 | 1017.9 |
| 20260831104036 | 22 | 63 | 0.0 | 0.0 | 0.00 | 0.00 | 0.00 | 93 | 1018.0 |
| 20260831103531 | 22 | 63 | 0.0 | 0.0 | 0.00 | 0.00 | 0.00 | 93 | 1017.9 |
| 20260831103027 | 22 | 63 | 0.0 | 0.0 | 0.00 | 0.00 | 0.00 | 93 | 1017.7 |
| 20260831102526 | 22 | 63 | 0.0 | 0.0 | 0.00 | 0.00 | 0.00 | 93 | 1018.0 |
| 20260831102021 | 22 | 63 | 0.0 | 0.0 | 0.00 | 0.00 | 0.00 | 93 | 1017.7 |
| 20260831101517 | 22 | 63 | 0.0 | 0.0 | 0.00 | 0.00 | 0.00 | 93 | 1017.7 |
| 20260831101013 | 22 | 63 | 0.0 | 0.0 | 0.00 | 0.00 | 0.00 | 93 | 1017.8 |
| 20260831100509 | 22 | 63 | 0.0 | 0.0 | 0.00 | 0.00 | 0.00 | 93 | 1017.8 |
| 20260831100004 | 22 | 63 | 0.0 | 0.0 | 0.00 | 0.00 | 0.00 | 93 | 1017.6 |
| 20260831095503 | 22 | 63 | 0.0 | 0.0 | 0.00 | 0.00 | 0.00 | 93 | 1017.7 |
| 20260831094957 | 22 | 63 | 0.0 | 0.0 | 0.00 | 0.00 | 0.00 | 93 | 1017.6 |
| 20260831094454 | 22 | 63 | 0.0 | 0.0 | 0.00 | 0.00 | 0.00 | 92 | 1017.5 |
| 20260831093949 | 22 | 63 | 0.0 | 0.0 | 0.00 | 0.00 | 0.00 | 92 | 1017.4 |
| 20260831093444 | 22 | 63 | 0.0 | 0.0 | 0.00 | 0.00 | 0.00 | 92 | 1017.4 |
| 20260831092941 | 22 | 63 | 0.0 | 0.0 | 0.00 | 0.00 | 0.00 | 92 | 1017.4 |
| 20260831092436 | 22 | 63 | 0.0 | 0.0 | 0.00 | 0.00 | 0.00 | 92 | 1017.4 |
| 20260831091931 | 22 | 63 | 0.0 | 0.0 | 0.00 | 0.00 | 0.00 | 92 | 1017.4 |
| 20260831091427 | 22 | 63 | 0.0 | 0.0 | 0.00 | 0.00 | 0.00 | 92 | 1017.3 |
| 20260831090922 | 22 | 63 | 0.0 | 0.0 | 0.00 | 0.00 | 0.00 | 92 | 1017.4 |
| 20260831090418 | 23 | 62 | 0.0 | 0.0 | 0.00 | 0.00 | 0.00 | 92 | 1017.2 |
| 20260831085914 | 23 | 62 | 0.0 | 0.0 | 0.00 | 0.00 | 0.00 | 91 | 1017.1 |
| 20260831085408 | 23 | 62 | 0.0 | 0.0 | 0.00 | 0.00 | 0.00 | 91 | 1017.1 |
| 20260831084908 | 23 | 62 | 0.0 | 0.0 | 0.00 | 0.00 | 0.00 | 91 | 1017.1 |
| 20260831084404 | 23 | 62 | 0.0 | 0.0 | 0.00 | 0.00 | 0.00 | 91 | 1016.9 |
| 20260831083900 | 23 | 62 | 0.0 | 0.0 | 0.00 | 0.00 | 0.00 | 91 | 1017.2 |
| 20260831083355 | 23 | 62 | 0.0 | 0.0 | 0.00 | 0.00 | 0.00 | 91 | 1017.2 |
| 20260831082854 | 23 | 62 | 0.0 | 0.0 | 0.00 | 0.00 | 0.00 | 91 | 1017.0 |
| 20260831082349 | 23 | 62 | 0.0 | 0.0 | 0.00 | 0.00 | 0.00 | 90 | 1017.0 |
| 20260831081845 | 23 | 62 | 0.0 | 0.0 | 0.00 | 0.00 | 0.00 | 91 | 1016.9 |
| 20260831081340 | 23 | 62 | 0.0 | 0.0 | 0.00 | 0.00 | 0.00 | 90 | 1017.0 |
| 20260831080836 | 23 | 62 | 0.0 | 0.0 | 0.00 | 0.00 | 0.00 | 90 | 1016.7 |
| 20260831080336 | 23 | 62 | 0.0 | 0.0 | 0.00 | 0.00 | 0.00 | 90 | 1016.8 |
| 20260831075832 | 23 | 62 | 0.0 | 0.0 | 0.00 | 0.00 | 0.00 | 90 | 1016.8 |
| 20260831075326 | 23 | 62 | 0.0 | 0.0 | 0.00 | 0.00 | 0.00 | 90 | 1017.1 |
| 20260831074821 | 23 | 62 | 0.0 | 0.0 | 0.00 | 0.00 | 0.00 | 90 | 1017.2 |
| 20260831074320 | 23 | 62 | 0.0 | 0.0 | 0.00 | 0.00 | 0.00 | 90 | 1017.0 |
| 20260831073816 | 23 | 62 | 0.0 | 0.0 | 0.00 | 0.00 | 0.00 | 90 | 1016.9 |
| 20260831073315 | 23 | 62 | 0.0 | 0.0 | 0.00 | 0.00 | 0.00 | 90 | 1016.9 |
| 20260831072811 | 23 | 62 | 0.0 | 0.0 | 0.00 | 0.00 | 0.00 | 89 | 1017.2 |
| 20260831072307 | 23 | 62 | 0.0 | 0.0 | 0.00 | 0.00 | 0.00 | 89 | 1017.2 |
| 20260831071802 | 23 | 62 | 0.0 | 0.0 | 0.00 | 0.00 | 0.00 | 89 | 1017.0 |
| 20260831071256 | 23 | 61 | 0.0 | 0.0 | 0.00 | 0.00 | 0.00 | 90 | 1017.2 |
| 20260831070756 | 23 | 62 | 0.0 | 0.0 | 0.00 | 0.00 | 0.00 | 90 | 1017.1 |
| 20260831070255 | 23 | 61 | 0.0 | 0.0 | 0.00 | 0.00 | 0.00 | 90 | 1017.0 |
| 20260831065754 | 23 | 62 | 0.0 | 0.0 | 0.00 | 0.00 | 0.00 | 90 | 1017.1 |
| 20260831065252 | 23 | 62 | 0.0 | 0.0 | 0.00 | 0.00 | 0.00 | 90 | 1017.2 |
| 20260831064748 | 23 | 62 | 0.0 | 0.0 | 0.00 | 0.00 | 0.00 | 90 | 1017.3 |
| 20260831064243 | 23 | 61 | 0.0 | 0.0 | 0.00 | 0.00 | 0.00 | 90 | 1017.1 |
| 20260831063739 | 23 | 61 | 0.0 | 0.0 | 0.00 | 0.00 | 0.00 | 90 | 1017.2 |
| 20260831063234 | 23 | 62 | 0.0 | 0.0 | 0.00 | 0.00 | 0.00 | 89 | 1017.2 |
| 20260831062733 | 23 | 61 | 0.0 | 0.0 | 0.00 | 0.00 | 0.00 | 89 | 1017.0 |
| 20260831062229 | 24 | 61 | 0.0 | 0.0 | 0.00 | 0.00 | 0.00 | 88 | 1017.1 |
| 20260831061726 | 24 | 61 | 0.0 | 0.0 | 0.00 | 0.00 | 0.00 | 88 | 1017.1 |
| 20260831061222 | 24 | 62 | 0.0 | 0.0 | 0.00 | 0.00 | 0.00 | 88 | 1017.1 |
| 20260831060719 | 24 | 62 | 0.0 | 0.0 | 0.00 | 0.00 | 0.00 | 87 | 1017.0 |
| 20260831060219 | 24 | 61 | 0.0 | 0.0 | 0.00 | 0.00 | 0.00 | 88 | 1017.3 |
| 20260831055718 | 24 | 61 | 0.0 | 0.0 | 0.00 | 0.00 | 0.00 | 88 | 1017.2 |
| 20260831055213 | 24 | 61 | 0.0 | 0.0 | 0.00 | 0.00 | 0.00 | 88 | 1017.2 |
| 20260831054713 | 24 | 61 | 0.0 | 0.0 | 0.00 | 0.00 | 0.00 | 88 | 1017.3 |
| 20260831054209 | 24 | 61 | 0.0 | 0.0 | 0.00 | 0.00 | 0.00 | 88 | 1017.3 |
| 20260831053708 | 25 | 61 | 0.0 | 0.0 | 0.00 | 0.00 | 0.00 | 87 | 1017.4 |
| 20260831053206 | 25 | 62 | 0.0 | 0.0 | 0.00 | 0.00 | 0.00 | 87 | 1017.2 |
| 20260831052706 | 25 | 61 | 0.0 | 0.0 | 0.00 | 0.00 | 0.00 | 87 | 1017.3 |
| 20260831052206 | 25 | 61 | 0.0 | 0.0 | 0.00 | 0.00 | 0.00 | 87 | 1017.2 |
| 20260831051704 | 25 | 61 | 0.0 | 0.0 | 0.00 | 0.00 | 0.00 | 87 | 1017.5 |
| 20260831051203 | 25 | 61 | 0.0 | 0.0 | 0.00 | 0.00 | 0.00 | 86 | 1017.3 |
| 20260831050703 | 25 | 62 | 0.0 | 0.0 | 0.00 | 0.00 | 0.00 | 86 | 1017.3 |
| 20260831050202 | 25 | 61 | 0.0 | 0.0 | 0.00 | 0.00 | 0.00 | 86 | 1017.3 |
| 20260831045657 | 25 | 61 | 0.0 | 0.0 | 0.00 | 0.00 | 0.00 | 86 | 1017.3 |
| 20260831045151 | 25 | 62 | 0.0 | 0.0 | 0.00 | 0.00 | 0.00 | 85 | 1017.3 |
| 20260831044646 | 25 | 62 | 0.0 | 0.0 | 0.00 | 0.00 | 0.00 | 85 | 1017.2 |
| 20260831044141 | 25 | 62 | 0.0 | 0.0 | 0.00 | 0.00 | 0.00 | 85 | 1017.3 |
| 20260831043637 | 25 | 62 | 0.0 | 0.0 | 0.00 | 0.00 | 0.00 | 84 | 1017.3 |
| 20260831043132 | 25 | 68 | 0.0 | 0.0 | 0.00 | 0.00 | 0.00 | 84 | 1017.4 |
| 20260831042631 | 26 | 50 | 0.0 | 0.0 | 0.00 | 0.00 | 0.00 | 84 | 1017.3 |
| 20260831042126 | 26 | 50 | 0.0 | 0.0 | 0.00 | 0.00 | 0.00 | 84 | 1017.3 |
| 20260831041621 | 26 | 55 | 0.0 | 0.0 | 0.00 | 0.00 | 0.00 | 84 | 1017.4 |
| 20260831041121 | 26 | 63 | 0.0 | 0.0 | 0.00 | 0.00 | 0.00 | 84 | 1017.3 |
| 20260831040616 | 26 | 63 | 0.0 | 0.0 | 0.00 | 0.00 | 0.00 | 84 | 1017.2 |
| 20260831040115 | 26 | 62 | 0.0 | 0.0 | 0.00 | 0.00 | 0.00 | 83 | 1017.3 |
| 20260831035614 | 26 | 62 | 0.0 | 0.0 | 0.00 | 0.00 | 0.00 | 83 | 1017.2 |
| 20260831035109 | 26 | 67 | 0.0 | 0.0 | 0.00 | 0.00 | 0.00 | 83 | 1017.2 |
| 20260831034608 | 26 | 61 | 0.0 | 0.0 | 0.00 | 0.00 | 0.00 | 83 | 1017.3 |
| 20260831034103 | 26 | 61 | 0.0 | 0.0 | 0.00 | 0.00 | 0.00 | 83 | 1017.0 |
| 20260831033558 | 26 | 61 | 0.0 | 0.0 | 0.00 | 0.00 | 0.00 | 83 | 1017.0 |
| 20260831033048 | 26 | 62 | 0.0 | 0.0 | 0.00 | 0.00 | 0.00 | 82 | 1017.2 |
| 20260831032547 | 26 | 62 | 0.0 | 0.0 | 0.00 | 0.00 | 0.00 | 82 | 1017.1 |
| 20260831032043 | 26 | 61 | 0.0 | 0.0 | 0.00 | 0.00 | 0.00 | 81 | 1017.1 |
| 20260831031542 | 26 | 61 | 0.0 | 0.0 | 0.00 | 0.00 | 0.00 | 81 | 1017.3 |
| 20260831031042 | 26 | 62 | 0.0 | 0.0 | 0.00 | 0.00 | 0.00 | 81 | 1017.0 |
| 20260831030541 | 26 | 63 | 0.0 | 0.0 | 0.00 | 0.00 | 0.00 | 80 | 1017.1 |
| 20260831030040 | 27 | 56 | 0.0 | 0.0 | 0.00 | 0.00 | 0.00 | 80 | 1017.0 |
| 20260831025538 | 27 | 56 | 0.0 | 0.0 | 0.00 | 0.00 | 0.00 | 79 | 1017.0 |
| 20260831025034 | 27 | 67 | 0.0 | 0.0 | 0.00 | 0.00 | 0.00 | 79 | 1017.0 |
| 20260831024530 | 27 | 108 | 1.6 | 3.2 | 0.00 | 0.00 | 0.00 | 78 | 1017.1 |
| 20260831024029 | 27 | 42 | 0.0 | 0.0 | 0.00 | 0.00 | 0.00 | 78 | 1017.0 |
| 20260831023528 | 27 | 49 | 0.0 | 0.0 | 0.00 | 0.00 | 0.00 | 78 | 1016.9 |
| 20260831023027 | 27 | 56 | 0.0 | 0.0 | 0.00 | 0.00 | 0.00 | 77 | 1017.0 |
| 20260831022527 | 27 | 53 | 0.0 | 1.6 | 0.00 | 0.00 | 0.00 | 77 | 1017.1 |
| 20260831022023 | 27 | 53 | 0.0 | 0.0 | 0.00 | 0.00 | 0.00 | 77 | 1017.0 |
| 20260831021521 | 27 | 67 | 0.0 | 0.0 | 0.00 | 0.00 | 0.00 | 76 | 1016.9 |
| 20260831021018 | 27 | 58 | 0.0 | 0.0 | 0.00 | 0.00 | 0.00 | 77 | 1016.8 |
| 20260831020513 | 27 | 68 | 0.0 | 0.0 | 0.00 | 0.00 | 0.00 | 76 | 1016.9 |
| 20260831020007 | 27 | 70 | 0.0 | 1.6 | 0.00 | 0.00 | 0.00 | 76 | 1016.9 |
| 20260831015503 | 27 | 71 | 0.0 | 0.0 | 0.00 | 0.00 | 0.00 | 76 | 1016.7 |
| 20260831014958 | 28 | 70 | 0.0 | 0.0 | 0.00 | 0.00 | 0.00 | 76 | 1016.6 |
| 20260831014452 | 28 | 71 | 0.0 | 0.0 | 0.00 | 0.00 | 0.00 | 76 | 1016.4 |
| 20260831013948 | 28 | 69 | 0.0 | 0.0 | 0.00 | 0.00 | 0.00 | 75 | 1016.6 |
| 20260831013443 | 27 | 54 | 0.0 | 0.0 | 0.00 | 0.00 | 0.00 | 75 | 1016.4 |
| 20260831012938 | 27 | 57 | 0.0 | 0.0 | 0.00 | 0.00 | 0.00 | 76 | 1016.1 |
| 20260831012433 | 27 | 57 | 0.0 | 0.0 | 0.00 | 0.00 | 0.00 | 75 | 1016.1 |
| 20260831011932 | 28 | 50 | 0.0 | 0.0 | 0.00 | 0.00 | 0.00 | 76 | 1016.1 |
| 20260831011427 | 27 | 73 | 1.6 | 1.6 | 0.00 | 0.00 | 0.00 | 75 | 1016.1 |
| 20260831010923 | 28 | 62 | 0.0 | 0.0 | 0.00 | 0.00 | 0.00 | 75 | 1016.0 |
| 20260831010418 | 28 | 62 | 0.0 | 0.0 | 0.00 | 0.00 | 0.00 | 74 | 1016.0 |